Regional Weather Roundup
Issued by NWS

Home | Current Version | Previous Version | Text Only | Print | Product List | Glossary Off
Versions: 1 2 3 4 5 6 7 8 9 10 11 12 13 14 15 16 17 18 19 20 21 22 23 24 25 26 27

000
ASUS45 KSLC 221810
RWRUT

UTAH REGIONAL WEATHER ROUNDUP
NATIONAL WEATHER SERVICE SALT LAKE CITY UT
1200 PM MDT WED OCT 22 2014

UTZ001>011-023>025-221900-

NORTHERN UTAH

CITY           SKY/WX    TMP DP  RH WIND       PRES   REMARKS
BRIGHAM CITY   SUNNY     50  31  48 CALM      30.23S
HILL AFB       SUNNY     53  31  42 VRB3      30.22R
LOGAN          SUNNY     46  33  60 CALM      30.23S
OGDEN          SUNNY     54  30  40 E3        30.21S
PROVO AIRPORT  SUNNY     50  32  50 SW3       30.22F
SALT LAKE CITY MOSUNNY   55  30  38 SE3       30.20F
VERNAL         SUNNY     54  42  64 SE6       30.20S
WENDOVER       SUNNY     52  30  43 SE6       30.22S
HEBER CITY     SUNNY     48  30  49 CALM      30.22F
WEST JORDAN    SUNNY     55  37  50 CALM      30.21F

$$

UTZ012>022-026-027-221900-

SOUTHERN/CENTRAL UTAH

CITY           SKY/WX    TMP DP  RH WIND       PRES   REMARKS
BLANDING       MOSUNNY   60  42  51 CALM      30.29S
BRYCE CANYON   SUNNY     57  34  41 VRB7      30.27S
CEDAR CITY     SUNNY     55  32  41 CALM      30.20F
DELTA          SUNNY     54  30  40 W5        30.22R
HANKSVILLE       N/A     64  41  42 E5        30.16F
MILFORD        SUNNY     57  27  31 VRB7      30.20S
MOAB/CYNLANDS  SUNNY     65  42  43 VRB5      30.14S
PRICE          SUNNY     59  30  33 S3        30.19S
ST GEORGE      CLEAR     68  39  34 SW3       30.12S
KANAB            N/A     66  39  37 SW3       30.21S

$$

REGIONAL REPORTS     COLORADO/ARIZONA

CITY           SKY/WX    TMP DP  RH WIND       PRES   REMARKS
CRAIG, CO      PTSUNNY   52  42  69 CALM      30.22S
GRAND JUNCTION SUNNY     59  46  62 CALM      30.16S
RIFLE          SUNNY     56  44  64 CALM      30.19F
MONTROSE       MOSUNNY   60  44  55 NW8       30.20S
CORTEZ         SUNNY     65  42  43 VRB6      30.21S
PAGE, AZ       MOSUNNY   68  39  34 N6        30.14S
GRAND CANYON   SUNNY     63  36  36 SW7       30.26S
KINGMAN        SUNNY     77  44  30 CALM      30.09F
FLAGSTAFF      SUNNY     60  37  42 VRB3      30.27S

$$

REGIONAL REPORTS    NEVADA/IDAHO/WYOMING

CITY           SKY/WX    TMP DP  RH WIND       PRES   REMARKS
LAS VEGAS, NV  MOSUNNY   75  27  17 S6        30.02S
ELY            SUNNY     54  16  22 CALM      30.22F
ELKO           SUNNY     49  23  36 CALM      30.20F
POCATELLO, ID  MOSUNNY   53  29  39 SW3       30.22R
BURLEY         SUNNY     54  32  43 CALM      30.17F
EVANSTON, WY   SUNNY     49  23  36 VRB6      30.24S
ROCK SPRINGS   SUNNY     44  29  55 W7        30.24S
KEMMERER       SUNNY     45  19  36 SW12G18   30.25R

$$



USA.gov is the U.S. government's official web portal to all federal, state and local government web resources and services.